{"data":{"norad_id":42828,"intl_designator":"2017-042D","name":"NORSAT 2","alt_names":[],"object_type":"PAYLOAD","status":"ACTIVE","operator":null,"country":"NOR","launch_date":"2017-07-14","launch_site_code":"TYMSC","launch_vehicle":null,"mission":null,"orbit_class":"UNKNOWN","rcs_meters":null,"size_class":null,"mass_kg":null,"dimensions":null,"purposes":[],"wikipedia_slug":null,"has_3d_model":false,"image_url":null,"decayed_at":null,"tle_current":{"epoch":"2026-05-25T00:17:14.798976Z","epoch_age_seconds":70691,"freshness":"FRESH","line1":"1 42828U 17042D   26145.01197684  .00009251  00000+0  41474-3 0  9991","line2":"2 42828  97.4033 318.8315 0010931 129.3540 230.8666 15.21386841484218","mean_motion":15.21386841,"eccentricity":0.0010931,"inclination_deg":97.4033,"raan_deg":318.8315,"arg_perigee_deg":129.354,"mean_anomaly_deg":230.8666,"bstar":0.00041474,"rev_number":48421,"period_min":94.650483440063,"perigee_km":494.136219589,"apogee_km":509.17682418655,"semimajor_km":6879.7935218878,"source":"CELESTRAK","updated_at":"2026-05-25T13:37:55.696596Z"}}}